This is the latest recevied weather packets stored in our database for station/object LX0APE-4. If no packets are shown the sender has not sent any weather packets the latest 10 day(s).
| Time | Temp. | Humidity | Pressure | Rain* | Wind** | Luminosity | Snow |
|---|---|---|---|---|---|---|---|
| 1777117336 | 21.11° C | 29% | 5015.8 hPa | 0 mm | - | - | - |
| 1777117036 | 21.11° C | 30% | 5015.6 hPa | 0 mm | - | - | - |
| 1777116736 | 20.56° C | 31% | 5015.8 hPa | 0 mm | - | - | - |
| 1777116436 | 20° C | 33% | 5015.8 hPa | 0 mm | - | - | - |
| 1777116136 | 20° C | 32% | 5015.9 hPa | 0 mm | - | - | - |
| 1777115836 | 19.44° C | 33% | 5016.2 hPa | 0 mm | - | - | - |
| 1777115536 | 18.89° C | 34% | 5015.9 hPa | 0 mm | - | - | - |
| 1777115241 | 18.89° C | 35% | 5016 hPa | 0 mm | - | - | - |
| 1777115236 | 18.89° C | 35% | 5016 hPa | 0 mm | - | - | - |
| 1777114936 | 18.33° C | 38% | 5016 hPa | 0 mm | - | - | - |
| 1777114636 | 17.78° C | 38% | 5016 hPa | 0 mm | - | - | - |
| 1777114336 | 17.78° C | 38% | 5016.1 hPa | 0 mm | - | - | - |
| 1777114036 | 17.78° C | 40% | 5016.1 hPa | 0 mm | - | - | - |
| 1777113736 | 17.78° C | 41% | 5016.3 hPa | 0 mm | - | - | - |
| 1777113441 | 17.22° C | 40% | 5016.1 hPa | 0 mm | - | - | - |
| 1777113436 | 17.22° C | 40% | 5016.1 hPa | 0 mm | - | - | - |
| 1777113136 | 17.22° C | 41% | 5016.3 hPa | 0 mm | - | - | - |
| 1777112836 | 16.67° C | 41% | 5016.1 hPa | 0 mm | - | - | - |
| 1777112536 | 16.67° C | 41% | 5016.2 hPa | 0 mm | - | - | - |
| 1777112236 | 16.67° C | 43% | 5016.1 hPa | 0 mm | - | - | - |
| 1777111936 | 16.11° C | 44% | 5016.2 hPa | 0 mm | - | - | - |
| 1777111636 | 16.11° C | 44% | 5016.5 hPa | 0 mm | - | - | - |
| 1777111336 | 15.56° C | 44% | 5016.4 hPa | 0 mm | - | - | - |
| 1777111036 | 15.56° C | 45% | 5016.4 hPa | 0 mm | - | - | - |
| 1777110736 | 15.56° C | 48% | 5016.2 hPa | 0 mm | - | - | - |
* Rain latest hour (hover to see other rain measurements)
** Current wind speed in m/s (hover to see current wind gust speed)